NOAA 16 DEB, 41161

Orbit data source: Space-Track

NOAA 16 DEB, 41161 is space debris in SSO originally from a launch on Thu, 21 Sep 2000 UTC launched from the Air Force Western Test Range (AFWTR). Debris objects in space refer to the collection of defunct objects orbiting the Earth. Examples of debris include non-operational satellites, rocket bodies, and fragments generated from explosions, collisions, or faulty payload assembly.

Loading next visibility...
Identifier
41161, 2000-055CU
Orbit
SSO
Country
Flag of USUS
Related business
Manufacturer
Unknown
Mission
Spacecraft
Bus & Motor
Unknown
Mass
Unknown
Launch date (UTC)
2000-09-21 (26 years ago)
Launch vehicle
Unknown
Launch site
Air Force Western Test Range (AFWTR)
Object type
Payload
Rocket body
Debris
Shape & HBR
Unknown shape, 0.1 m
Radar Cross Section
Medium (>0.1 m² and <1 m²)

Expand to show TLE details & history
Last TLE update: 1 week ago

TLE from 1 week ago
0 NOAA 16 DEB
1 41161U 00055CU  26153.34662021  .00002884  00000-0  13290-2 0  9993
2 41161  98.6728 201.0841 0039258 139.7967 220.6125 14.21415761540841
Epoch: 2026-06-02T08:19Z
TLE epoch observation values (Epoch: 2026-06-02T08:19:07.986Z)
Latitude
-0.00008°
Longitude
-174.52007°
Altitude
844.991 km
Speed
7.419 km/s
True Right ascension
13h 24m 20s
True Declination
0° 00' 00"
Sunlit
Object was in full shadow at epoch
Visualization orbit readout
Latitude
Unknown
Longitude
Unknown
Altitude
Unknown
Speed
Unknown
Apparent Right ascension
Unknown
Apparent Declination
Unknown
Sunlit
N/A
Visualization observer readout
Local Sidereal Time
19:07:33
Azimuth
Unknown
Elevation
Unknown
Doppler factor
Unknown
Orbital elements
Apogee altitude
845.973 km
Perigee altitude
789.474 km
Semi-major axis
7,195.861 km
Eccentricity
0.00393
Inclination
98.6728°
RAAN
201.0841°
Arg. of periapsis
139.7967°
True anomaly
220.32075°
Mean anomaly
220.6125°
Eccentric anomaly
220.46652°
Mean motion
3.55565 °/min
Orbital period
101.25 mins
BSTAR
0.001329
Loading maneuver chart data...
Computing Atmospheric mass density...
Loading historical data...
Loading historical data...
Loading historical data...
Loading historical data...
Loading historical data...
Loading historical data...
Loading historical data...

Documentation

Showing up to 5 results
|